UAL1717 KLAX-KSAN

Flight info

Callsign UAL1717
Flight time 0h 27m
Altitude 13000
Route LAXX1 MZB
Aircraft A319/M-SDE3GIRWYZ/LB1

Departure

Time 2026-05-01 10:51
Airport Los Angeles International Airport (KLAX)

Arrival

Time 2026-05-01 11:19
Airport San Diego International Airport (KSAN)
Time Latitude Longitude Altitude Speed Heading
2026-05-01 10:35 33.94168 -118.39777 126 ft 0 kts 82°
2026-05-01 10:43 33.94168 -118.39778 126 ft 1 kts 82°
2026-05-01 10:43 33.94165 -118.39801 126 ft 4 kts 92°
2026-05-01 10:43 33.94171 -118.39830 120 ft 4 kts 135°
2026-05-01 10:43 33.94185 -118.39840 125 ft 0 kts 172°
2026-05-01 10:46 33.94183 -118.39840 126 ft 1 kts 172°
2026-05-01 10:46 33.94173 -118.39838 122 ft 3 kts 172°
2026-05-01 10:46 33.94146 -118.39834 126 ft 5 kts 172°
2026-05-01 10:47 33.94092 -118.39826 123 ft 11 kts 174°
2026-05-01 10:47 33.94008 -118.39822 123 ft 13 kts 174°
2026-05-01 10:47 33.93905 -118.39742 123 ft 17 kts 89°
2026-05-01 10:47 33.93920 -118.39594 126 ft 19 kts 83°
2026-05-01 10:48 33.93932 -118.39480 126 ft 21 kts 83°
2026-05-01 10:48 33.93951 -118.39292 126 ft 24 kts 83°
2026-05-01 10:48 33.93972 -118.39084 126 ft 26 kts 83°
2026-05-01 10:48 33.93995 -118.38858 126 ft 28 kts 83°
2026-05-01 10:49 33.94021 -118.38611 126 ft 31 kts 83°
2026-05-01 10:49 33.94042 -118.38404 124 ft 15 kts 82°
2026-05-01 10:49 33.94043 -118.38330 122 ft 4 kts 106°
2026-05-01 10:49 33.94034 -118.38329 129 ft 0 kts 181°
2026-05-01 10:50 33.94028 -118.38329 121 ft 2 kts 181°
2026-05-01 10:50 33.94005 -118.38329 124 ft 5 kts 178°
2026-05-01 10:50 33.93955 -118.38350 126 ft 9 kts 234°
2026-05-01 10:50 33.93943 -118.38438 125 ft 13 kts 263°
2026-05-01 10:51 33.93913 -118.38723 126 ft 66 kts 263°
2026-05-01 10:51 33.93829 -118.39538 126 ft 129 kts 263°
2026-05-01 10:51 33.93694 -118.40853 208 ft 179 kts 263°
2026-05-01 10:51 33.93539 -118.42352 857 ft 184 kts 262°
2026-05-01 10:52 33.93377 -118.43915 1586 ft 191 kts 262°
2026-05-01 10:52 33.92890 -118.45412 2204 ft 204 kts 231°
2026-05-01 10:52 33.91920 -118.46802 2657 ft 228 kts 230°
2026-05-01 10:52 33.90760 -118.48249 3136 ft 254 kts 216°
2026-05-01 10:53 33.89063 -118.49009 3830 ft 270 kts 185°
2026-05-01 10:53 33.87173 -118.48809 4733 ft 277 kts 168°
2026-05-01 10:53 33.85269 -118.48352 5682 ft 280 kts 167°
2026-05-01 10:53 33.83348 -118.47898 6650 ft 283 kts 167°
2026-05-01 10:54 33.81430 -118.47380 7565 ft 283 kts 158°
2026-05-01 10:54 33.79795 -118.46095 8457 ft 282 kts 131°
2026-05-01 10:54 33.78633 -118.44192 9398 ft 283 kts 122°
2026-05-01 10:54 33.77621 -118.42160 10213 ft 289 kts 117°
2026-05-01 10:55 33.76672 -118.39923 10488 ft 312 kts 116°
2026-05-01 10:55 33.75701 -118.37512 10939 ft 326 kts 115°
2026-05-01 10:55 33.74716 -118.35028 11621 ft 331 kts 115°
2026-05-01 10:55 33.73716 -118.32523 12348 ft 336 kts 115°
2026-05-01 10:56 33.72691 -118.29972 12835 ft 340 kts 115°
2026-05-01 10:56 33.71658 -118.27416 12966 ft 340 kts 115°
2026-05-01 10:56 33.70620 -118.24860 12989 ft 339 kts 115°
2026-05-01 10:56 33.69598 -118.22351 12991 ft 339 kts 115°
2026-05-01 10:57 33.68564 -118.19811 12991 ft 339 kts 115°
2026-05-01 10:57 33.67528 -118.17265 12990 ft 339 kts 115°
2026-05-01 10:57 33.66492 -118.14721 12992 ft 339 kts 115°
2026-05-01 10:57 33.65459 -118.12180 12999 ft 339 kts 115°
2026-05-01 10:58 33.64425 -118.09640 13003 ft 339 kts 115°
2026-05-01 10:58 33.63390 -118.07099 13011 ft 339 kts 115°
2026-05-01 10:58 33.62356 -118.04561 13009 ft 339 kts 115°
2026-05-01 10:58 33.61320 -118.02019 13013 ft 339 kts 115°
2026-05-01 10:59 33.60283 -117.99481 13014 ft 339 kts 115°
2026-05-01 10:59 33.59244 -117.96943 13015 ft 339 kts 115°
2026-05-01 10:59 33.58206 -117.94411 13020 ft 339 kts 115°
2026-05-01 10:59 33.57164 -117.91878 13015 ft 339 kts 115°
2026-05-01 11:00 33.56124 -117.89348 13019 ft 339 kts 115°
2026-05-01 11:00 33.55084 -117.86813 13015 ft 339 kts 115°
2026-05-01 11:00 33.54045 -117.84281 13020 ft 339 kts 115°
2026-05-01 11:00 33.53005 -117.81751 13021 ft 339 kts 115°
2026-05-01 11:01 33.51964 -117.79222 13018 ft 339 kts 115°
2026-05-01 11:01 33.50921 -117.76693 13014 ft 338 kts 115°
2026-05-01 11:01 33.49879 -117.74165 13018 ft 338 kts 115°
2026-05-01 11:01 33.48832 -117.71638 13019 ft 338 kts 116°
2026-05-01 11:02 33.47540 -117.69291 13021 ft 339 kts 128°
2026-05-01 11:02 33.45919 -117.67283 13029 ft 340 kts 134°
2026-05-01 11:02 33.44226 -117.65308 13022 ft 340 kts 134°
2026-05-01 11:02 33.42534 -117.63330 13026 ft 340 kts 134°
2026-05-01 11:03 33.40847 -117.61355 13024 ft 340 kts 134°
2026-05-01 11:03 33.39157 -117.59379 13023 ft 340 kts 134°
2026-05-01 11:03 33.37468 -117.57402 13025 ft 340 kts 134°
2026-05-01 11:03 33.35774 -117.55423 13026 ft 340 kts 134°
2026-05-01 11:04 33.34083 -117.53447 13076 ft 341 kts 135°
2026-05-01 11:04 33.32356 -117.51431 12984 ft 346 kts 134°
2026-05-01 11:04 33.30652 -117.49444 13025 ft 340 kts 134°
2026-05-01 11:04 33.28963 -117.47476 13026 ft 339 kts 134°
2026-05-01 11:05 33.27273 -117.45511 13028 ft 339 kts 134°
2026-05-01 11:05 33.25579 -117.43554 13009 ft 339 kts 135°
2026-05-01 11:05 33.23680 -117.41870 13010 ft 342 kts 148°
2026-05-01 11:05 33.21508 -117.40693 13010 ft 344 kts 159°
2026-05-01 11:06 33.19250 -117.39753 13009 ft 344 kts 159°
2026-05-01 11:06 33.16995 -117.38808 13006 ft 344 kts 159°
2026-05-01 11:06 33.14744 -117.37859 13011 ft 344 kts 159°
2026-05-01 11:07 33.10249 -117.35960 12839 ft 337 kts 159°
2026-05-01 11:07 33.08100 -117.35056 12585 ft 328 kts 158°
2026-05-01 11:07 33.05974 -117.34165 12345 ft 320 kts 159°
2026-05-01 11:07 33.03971 -117.33110 12021 ft 313 kts 148°
2026-05-01 11:08 33.02226 -117.31595 11641 ft 308 kts 137°
2026-05-01 11:08 33.00622 -117.29924 11261 ft 305 kts 137°
2026-05-01 11:08 32.97435 -117.26620 10511 ft 302 kts 137°
2026-05-01 11:09 32.95857 -117.24989 10179 ft 299 kts 137°
2026-05-01 11:09 32.94310 -117.23393 10013 ft 290 kts 137°
2026-05-01 11:09 32.92796 -117.21831 9819 ft 287 kts 137°
2026-05-01 11:10 32.89753 -117.18680 8814 ft 293 kts 137°
2026-05-01 11:10 32.88234 -117.17106 8536 ft 288 kts 136°
2026-05-01 11:10 32.86726 -117.15548 8196 ft 285 kts 137°
2026-05-01 11:10 32.85234 -117.14008 7841 ft 284 kts 137°
2026-05-01 11:11 32.83745 -117.12475 7356 ft 282 kts 137°
2026-05-01 11:11 32.82249 -117.10933 6652 ft 287 kts 137°
2026-05-01 11:11 32.80758 -117.09399 6289 ft 278 kts 137°
2026-05-01 11:11 32.79337 -117.07942 6122 ft 261 kts 137°
2026-05-01 11:12 32.78139 -117.06446 6013 ft 240 kts 121°
2026-05-01 11:12 32.77468 -117.04750 5852 ft 222 kts 104°
2026-05-01 11:12 32.77047 -117.02991 5662 ft 215 kts 103°
2026-05-01 11:12 32.76640 -117.01321 5530 ft 208 kts 103°
2026-05-01 11:13 32.76241 -116.99688 5326 ft 208 kts 103°
2026-05-01 11:13 32.75814 -116.98051 5144 ft 209 kts 110°
2026-05-01 11:13 32.74987 -116.96630 4898 ft 212 kts 134°
2026-05-01 11:13 32.73734 -116.95705 4640 ft 214 kts 159°
2026-05-01 11:14 32.72276 -116.95446 4374 ft 212 kts 183°
2026-05-01 11:14 32.70866 -116.95883 4124 ft 209 kts 207°
2026-05-01 11:14 32.69731 -116.96916 3873 ft 205 kts 230°
2026-05-01 11:14 32.69022 -116.98364 3488 ft 204 kts 252°
2026-05-01 11:15 32.68838 -117.00025 3064 ft 203 kts 275°
2026-05-01 11:15 32.69143 -117.01589 2995 ft 186 kts 287°
2026-05-01 11:15 32.69495 -117.03028 3012 ft 178 kts 287°
2026-05-01 11:15 32.69837 -117.04445 2742 ft 181 kts 286°
2026-05-01 11:16 32.70187 -117.05889 2377 ft 179 kts 286°
2026-05-01 11:16 32.70525 -117.07287 2161 ft 174 kts 285°
2026-05-01 11:16 32.70858 -117.08662 1924 ft 174 kts 285°
2026-05-01 11:16 32.71189 -117.10033 1665 ft 167 kts 285°
2026-05-01 11:17 32.71491 -117.11273 1396 ft 147 kts 286°
2026-05-01 11:17 32.71766 -117.12400 1167 ft 138 kts 286°
2026-05-01 11:17 32.72027 -117.13478 961 ft 135 kts 287°
2026-05-01 11:17 32.72283 -117.14541 763 ft 133 kts 287°
2026-05-01 11:18 32.72531 -117.15577 563 ft 131 kts 287°
2026-05-01 11:18 32.72788 -117.16627 324 ft 131 kts 288°
2026-05-01 11:18 32.73043 -117.17664 134 ft 131 kts 287°
2026-05-01 11:18 32.73280 -117.18648 24 ft 113 kts 287°
2026-05-01 11:19 32.73423 -117.19243 22 ft 51 kts 286°
2026-05-01 11:19 32.73434 -117.19466 24 ft 14 kts 249°
2026-05-01 11:19 32.73429 -117.19480 25 ft 0 kts 248°
2026-05-01 11:19 32.73427 -117.19485 26 ft 2 kts 248°
2026-05-01 11:20 32.73421 -117.19504 24 ft 4 kts 248°
2026-05-01 11:20 32.73408 -117.19542 24 ft 6 kts 248°
2026-05-01 11:20 32.73407 -117.19605 25 ft 9 kts 290°
2026-05-01 11:20 32.73430 -117.19691 23 ft 12 kts 286°
2026-05-01 11:21 32.73455 -117.19795 24 ft 14 kts 286°
2026-05-01 11:21 32.73485 -117.19916 24 ft 17 kts 286°
2026-05-01 11:21 32.73521 -117.20063 24 ft 20 kts 286°
2026-05-01 11:21 32.73562 -117.20231 23 ft 22 kts 286°
2026-05-01 11:22 32.73600 -117.20414 17 ft 16 kts 262°
2026-05-01 11:22 32.73524 -117.20496 18 ft 16 kts 219°
2026-05-01 11:22 32.73468 -117.20556 20 ft 7 kts 195°
2026-05-01 11:22 32.73443 -117.20520 23 ft 6 kts 111°
2026-05-01 11:23 32.73432 -117.20479 21 ft 2 kts 107°
2026-05-01 11:23 32.73429 -117.20467 21 ft 1 kts 109°
2026-05-01 11:23 32.73428 -117.20465 21 ft 0 kts 109°